| time (UTC) | temp F | wind direction | speed knots | gust knots | rain 1hr in | rain 24hr in | rain mn in | humidity % | barometer mb |
| 20260509022331 | 79 | 0 | 0.0 | 1.7 | 0.00 | 0.01 | 0.01 | 87 | 1013.5 |
| 20260509021431 | 80 | 0 | 0.0 | 1.7 | 0.00 | 0.01 | 0.01 | 87 | 1013.5 |
| 20260509020531 | 80 | 0 | 0.0 | 0.9 | 0.00 | 0.01 | 0.01 | 86 | 1013.4 |
| 20260509015631 | 80 | 0 | 0.0 | 0.9 | 0.00 | 0.01 | 0.01 | 86 | 1013.4 |
| 20260509014731 | 80 | 0 | 0.0 | 0.9 | 0.00 | 0.01 | 0.01 | 85 | 1013.3 |
| 20260509013831 | 80 | 0 | 0.0 | 0.9 | 0.00 | 0.01 | 0.01 | 85 | 1013.2 |
| 20260509012931 | 80 | 0 | 0.0 | 0.9 | 0.00 | 0.01 | 0.01 | 84 | 1013.1 |
| 20260509012030 | 80 | 0 | 0.0 | 0.9 | 0.00 | 0.01 | 0.01 | 84 | 1013.0 |
| 20260509010231 | 80 | 0 | 0.0 | 0.9 | 0.00 | 0.01 | 0.01 | 83 | 1012.6 |
| 20260509005331 | 80 | 0 | 0.0 | 0.9 | 0.00 | 0.01 | 0.01 | 81 | 1012.6 |
| 20260509003530 | 81 | 0 | 0.0 | 2.6 | 0.00 | 0.01 | 0.01 | 81 | 1012.3 |
| 20260509002631 | 81 | 0 | 0.0 | 0.9 | 0.00 | 0.01 | 0.01 | 79 | 1012.2 |
| 20260509001731 | 81 | 0 | 0.0 | 0.9 | 0.00 | 0.01 | 0.01 | 79 | 1012.2 |
| 20260509000831 | 81 | 0 | 0.0 | 0.9 | 0.00 | 0.01 | 0.01 | 79 | 1012.1 |
| 20260508235931 | 82 | 0 | 0.0 | 0.9 | 0.00 | 0.01 | 0.01 | 78 | 1011.9 |
| 20260508235030 | 82 | 0 | 0.0 | 0.9 | 0.00 | 0.01 | 0.01 | 77 | 1011.9 |
| 20260508234131 | 83 | 0 | 0.0 | 0.0 | 0.00 | 0.01 | 0.01 | 76 | 1011.8 |
| 20260508233231 | 83 | 0 | 0.0 | 0.9 | 0.00 | 0.01 | 0.01 | 75 | 1011.6 |
| 20260508232331 | 84 | 0 | 0.0 | 0.9 | 0.00 | 0.01 | 0.01 | 76 | 1011.6 |
| 20260508231430 | 84 | 0 | 0.0 | 1.7 | 0.00 | 0.01 | 0.01 | 76 | 1011.5 |
| 20260508230530 | 85 | 0 | 0.0 | 1.7 | 0.00 | 0.01 | 0.01 | 75 | 1011.5 |
| 20260508225631 | 86 | 207 | 0.9 | 1.7 | 0.00 | 0.01 | 0.01 | 74 | 1011.4 |
| 20260508224731 | 86 | 204 | 0.9 | 1.7 | 0.00 | 0.01 | 0.01 | 75 | 1011.4 |
| 20260508223831 | 87 | 201 | 0.9 | 3.5 | 0.00 | 0.01 | 0.01 | 72 | 1011.4 |
| 20260508222030 | 88 | 200 | 0.9 | 2.6 | 0.00 | 0.01 | 0.01 | 72 | 1011.3 |
| 20260508220230 | 87 | 206 | 1.7 | 3.5 | 0.00 | 0.01 | 0.01 | 70 | 1011.6 |
| 20260508215331 | 88 | 203 | 0.9 | 3.5 | 0.00 | 0.01 | 0.01 | 68 | 1011.7 |
| 20260508214431 | 88 | 203 | 0.9 | 3.5 | 0.00 | 0.01 | 0.01 | 70 | 1011.6 |
| 20260508213530 | 88 | 209 | 0.9 | 2.6 | 0.00 | 0.01 | 0.01 | 71 | 1011.6 |
| 20260508212630 | 88 | 208 | 0.9 | 2.6 | 0.00 | 0.01 | 0.01 | 69 | 1011.7 |
| 20260508211730 | 87 | 208 | 1.7 | 4.3 | 0.00 | 0.01 | 0.01 | 70 | 1011.7 |
| 20260508210831 | 87 | 214 | 1.7 | 4.3 | 0.00 | 0.01 | 0.01 | 72 | 1011.7 |
| 20260508205930 | 86 | 209 | 2.6 | 3.5 | 0.00 | 0.01 | 0.01 | 73 | 1011.8 |
| 20260508204130 | 87 | 205 | 1.7 | 4.3 | 0.00 | 0.01 | 0.01 | 70 | 1011.9 |
| 20260508203230 | 87 | 202 | 1.7 | 3.5 | 0.00 | 0.01 | 0.01 | 69 | 1011.9 |
| 20260508202330 | 87 | 209 | 1.7 | 4.3 | 0.00 | 0.01 | 0.01 | 74 | 1012.2 |
| 20260508201430 | 87 | 208 | 1.7 | 4.3 | 0.00 | 0.01 | 0.01 | 73 | 1012.2 |
| 20260508200530 | 86 | 208 | 1.7 | 5.2 | 0.00 | 0.01 | 0.01 | 74 | 1012.7 |
| 20260508195630 | 86 | 211 | 1.7 | 7.0 | 0.00 | 0.01 | 0.01 | 75 | 1012.8 |
| 20260508194730 | 86 | 213 | 2.6 | 6.1 | 0.00 | 0.01 | 0.01 | 74 | 1012.7 |
| 20260508193830 | 86 | 212 | 2.6 | 6.1 | 0.00 | 0.01 | 0.01 | 73 | 1012.8 |
| 20260508192930 | 87 | 207 | 2.6 | 4.3 | 0.00 | 0.01 | 0.01 | 74 | 1013.0 |
| 20260508192030 | 87 | 214 | 2.6 | 4.3 | 0.00 | 0.01 | 0.01 | 72 | 1013.2 |
| 20260508191130 | 87 | 209 | 1.7 | 4.3 | 0.00 | 0.01 | 0.01 | 72 | 1013.3 |
| 20260508190230 | 87 | 211 | 1.7 | 4.3 | 0.00 | 0.01 | 0.01 | 71 | 1013.4 |
| 20260508184430 | 88 | 210 | 1.7 | 3.5 | 0.00 | 0.01 | 0.01 | 70 | 1013.7 |
| 20260508183530 | 88 | 201 | 0.9 | 3.5 | 0.00 | 0.01 | 0.01 | 71 | 1013.9 |
| 20260508182630 | 88 | 211 | 1.7 | 5.2 | 0.00 | 0.01 | 0.01 | 74 | 1014.0 |
| 20260508181730 | 87 | 209 | 1.7 | 4.3 | 0.00 | 0.01 | 0.01 | 72 | 1014.2 |
| 20260508175930 | 88 | 210 | 0.9 | 3.5 | 0.00 | 0.01 | 0.01 | 72 | 1014.3 |
| 20260508173230 | 87 | 209 | 1.7 | 6.1 | 0.00 | 0.01 | 0.01 | 73 | 1014.5 |
| 20260508172330 | 88 | 203 | 1.7 | 6.1 | 0.00 | 0.01 | 0.01 | 75 | 1014.5 |
| 20260508165630 | 89 | 208 | 0.9 | 2.6 | 0.00 | 0.01 | 0.01 | 74 | 1014.7 |
| 20260508164730 | 89 | 197 | 0.9 | 3.5 | 0.00 | 0.01 | 0.01 | 73 | 1014.9 |
| 20260508163830 | 89 | 212 | 0.9 | 2.6 | 0.00 | 0.01 | 0.01 | 73 | 1015.0 |
| 20260508162930 | 89 | 257 | 0.9 | 1.7 | 0.00 | 0.01 | 0.01 | 73 | 1015.1 |
| 20260508162029 | 88 | 79 | 0.9 | 2.6 | 0.00 | 0.01 | 0.01 | 65 | 1015.1 |
| 20260508161130 | 89 | 63 | 0.9 | 2.6 | 0.00 | 0.01 | 0.01 | 63 | 1015.2 |
| 20260508160230 | 88 | 43 | 0.9 | 2.6 | 0.00 | 0.01 | 0.01 | 67 | 1015.3 |
| 20260508155330 | 87 | 53 | 0.9 | 4.3 | 0.00 | 0.01 | 0.01 | 67 | 1015.5 |
| 20260508153529 | 88 | 54 | 0.9 | 2.6 | 0.00 | 0.01 | 0.01 | 68 | 1015.7 |
| 20260508152630 | 87 | 72 | 0.9 | 4.3 | 0.00 | 0.01 | 0.01 | 65 | 1015.7 |
| 20260508151730 | 87 | 89 | 0.9 | 1.7 | 0.00 | 0.01 | 0.01 | 70 | 1015.8 |
| 20260508150830 | 86 | 62 | 0.9 | 3.5 | 0.00 | 0.01 | 0.01 | 71 | 1015.8 |
| 20260508145930 | 86 | 64 | 0.9 | 5.2 | 0.00 | 0.01 | 0.01 | 73 | 1015.9 |
| 20260508145030 | 84 | 68 | 0.9 | 3.5 | 0.00 | 0.01 | 0.01 | 73 | 1015.9 |
| 20260508144130 | 84 | 53 | 0.9 | 3.5 | 0.00 | 0.01 | 0.01 | 73 | 1015.9 |
| 20260508143230 | 84 | 50 | 0.9 | 2.6 | 0.00 | 0.01 | 0.01 | 74 | 1016.0 |
| 20260508142330 | 84 | 38 | 0.9 | 2.6 | 0.00 | 0.01 | 0.01 | 75 | 1016.0 |
| 20260508140529 | 83 | 62 | 0.9 | 3.5 | 0.00 | 0.01 | 0.01 | 78 | 1015.8 |
| 20260508135630 | 83 | 54 | 1.7 | 4.3 | 0.00 | 0.01 | 0.01 | 77 | 1015.8 |
| 20260508134730 | 83 | 47 | 0.9 | 3.5 | 0.00 | 0.01 | 0.01 | 78 | 1015.7 |
| 20260508133830 | 82 | 49 | 1.7 | 5.2 | 0.00 | 0.01 | 0.01 | 80 | 1015.6 |
| 20260508132929 | 82 | 61 | 0.9 | 2.6 | 0.00 | 0.01 | 0.01 | 83 | 1015.6 |
| 20260508132029 | 81 | 70 | 0.9 | 3.5 | 0.00 | 0.01 | 0.01 | 84 | 1015.5 |
| 20260508131130 | 80 | 59 | 0.9 | 2.6 | 0.00 | 0.01 | 0.01 | 85 | 1015.5 |
| 20260508130229 | 80 | 55 | 0.9 | 2.6 | 0.00 | 0.01 | 0.01 | 85 | 1015.6 |
| 20260508125329 | 80 | 45 | 0.9 | 1.7 | 0.00 | 0.01 | 0.01 | 86 | 1015.5 |
| 20260508124429 | 79 | 0 | 0.0 | 2.6 | 0.00 | 0.01 | 0.01 | 86 | 1015.5 |
| 20260508123529 | 79 | 0 | 0.0 | 2.6 | 0.00 | 0.01 | 0.01 | 87 | 1015.4 |
| 20260508122629 | 78 | 0 | 0.0 | 0.9 | 0.00 | 0.01 | 0.01 | 88 | 1015.5 |
| 20260508121729 | 77 | 0 | 0.0 | 0.9 | 0.00 | 0.01 | 0.01 | 89 | 1015.4 |
| 20260508115929 | 77 | 0 | 0.0 | 0.9 | 0.00 | 0.01 | 0.01 | 91 | 1015.1 |
| 20260508115029 | 76 | 0 | 0.0 | 0.9 | 0.00 | 0.01 | 0.01 | 92 | 1014.9 |
| 20260508114129 | 76 | 0 | 0.0 | 0.9 | 0.00 | 0.01 | 0.01 | 92 | 1014.7 |
| 20260508113229 | 75 | 0 | 0.0 | 0.9 | 0.00 | 0.01 | 0.01 | 93 | 1014.7 |
| 20260508110529 | 74 | 0 | 0.0 | 0.9 | 0.00 | 0.01 | 0.01 | 94 | 1014.3 |
| 20260508105629 | 74 | 0 | 0.0 | 0.0 | 0.00 | 0.01 | 0.01 | 94 | 1014.1 |
| 20260508104729 | 75 | 0 | 0.0 | 0.0 | 0.00 | 0.01 | 0.01 | 93 | 1013.9 |
| 20260508103829 | 75 | 0 | 0.0 | 0.0 | 0.00 | 0.01 | 0.01 | 94 | 1013.8 |
| 20260508102930 | 75 | 0 | 0.0 | 0.0 | 0.00 | 0.01 | 0.01 | 94 | 1013.7 |
| 20260508102029 | 75 | 0 | 0.0 | 0.0 | 0.00 | 0.01 | 0.01 | 94 | 1013.6 |
| 20260508101129 | 75 | 0 | 0.0 | 0.0 | 0.00 | 0.01 | 0.01 | 94 | 1013.3 |
| 20260508094439 | 75 | 0 | 0.0 | 0.9 | 0.00 | 0.01 | 0.01 | 94 | 1013.1 |
| 20260508093538 | 74 | 0 | 0.0 | 0.0 | 0.00 | 0.01 | 0.01 | 94 | 1013.0 |
| 20260508092639 | 75 | 0 | 0.0 | 0.0 | 0.00 | 0.01 | 0.01 | 94 | 1013.1 |
| 20260508091739 | 75 | 0 | 0.0 | 0.0 | 0.00 | 0.01 | 0.01 | 94 | 1013.0 |
| 20260508085039 | 75 | 0 | 0.0 | 0.0 | 0.00 | 0.01 | 0.01 | 94 | 1013.0 |
| 20260508084139 | 75 | 0 | 0.0 | 0.9 | 0.00 | 0.01 | 0.01 | 94 | 1013.0 |
| 20260508082338 | 75 | 0 | 0.0 | 0.9 | 0.00 | 0.01 | 0.01 | 94 | 1013.1 |
| 20260508081439 | 75 | 0 | 0.0 | 0.9 | 0.00 | 0.01 | 0.01 | 95 | 1013.1 |
| 20260508080539 | 75 | 0 | 0.0 | 0.0 | 0.00 | 0.01 | 0.01 | 95 | 1013.0 |
| 20260508075638 | 75 | 0 | 0.0 | 0.9 | 0.00 | 0.01 | 0.01 | 95 | 1013.1 |
| 20260508074738 | 75 | 0 | 0.0 | 0.9 | 0.00 | 0.01 | 0.01 | 95 | 1013.1 |
| 20260508073839 | 75 | 0 | 0.0 | 0.9 | 0.00 | 0.01 | 0.01 | 95 | 1013.2 |
| 20260508072939 | 76 | 0 | 0.0 | 0.9 | 0.00 | 0.01 | 0.01 | 95 | 1013.2 |
| 20260508072038 | 76 | 0 | 0.0 | 0.9 | 0.00 | 0.01 | 0.01 | 95 | 1013.3 |
| 20260508071138 | 76 | 0 | 0.0 | 0.9 | 0.00 | 0.01 | 0.01 | 95 | 1013.2 |
| 20260508065339 | 76 | 0 | 0.0 | 0.9 | 0.00 | 0.01 | 0.01 | 95 | 1013.3 |
| 20260508064439 | 76 | 0 | 0.0 | 0.9 | 0.01 | 0.01 | 0.01 | 95 | 1013.3 |
| 20260508063539 | 76 | 0 | 0.0 | 0.9 | 0.01 | 0.01 | 0.01 | 95 | 1013.4 |
| 20260508062639 | 76 | 0 | 0.0 | 0.9 | 0.01 | 0.01 | 0.01 | 95 | 1013.5 |
| 20260508061738 | 76 | 0 | 0.0 | 0.9 | 0.01 | 0.01 | 0.01 | 95 | 1013.4 |
| 20260508060838 | 76 | 0 | 0.0 | 0.0 | 0.01 | 0.01 | 0.01 | 95 | 1013.4 |
| 20260508055938 | 76 | 0 | 0.0 | 0.0 | 0.01 | 0.01 | 0.01 | 95 | 1013.4 |
| 20260508055039 | 76 | 0 | 0.0 | 0.0 | 0.00 | 0.00 | 0.00 | 95 | 1013.5 |
| 20260508054139 | 76 | 0 | 0.0 | 0.0 | 0.00 | 0.00 | 0.00 | 95 | 1013.7 |
| 20260508053239 | 76 | 0 | 0.0 | 0.0 | 0.00 | 0.00 | 0.00 | 95 | 1013.7 |
| 20260508052338 | 76 | 0 | 0.0 | 0.0 | 0.00 | 0.00 | 0.00 | 95 | 1013.8 |
| 20260508051439 | 76 | 0 | 0.0 | 0.0 | 0.00 | 0.00 | 0.00 | 94 | 1013.8 |
| 20260508045639 | 76 | 0 | 0.0 | 0.0 | 0.00 | 0.00 | 0.00 | 94 | 1014.0 |
| 20260508044738 | 76 | 0 | 0.0 | 0.0 | 0.00 | 0.00 | 0.00 | 94 | 1014.1 |
| 20260508043839 | 76 | 0 | 0.0 | 0.0 | 0.00 | 0.00 | 0.00 | 94 | 1014.1 |
| 20260508042939 | 76 | 0 | 0.0 | 0.0 | 0.00 | 0.00 | 0.00 | 94 | 1014.1 |
| 20260508042038 | 76 | 0 | 0.0 | 0.0 | 0.00 | 0.00 | 0.00 | 94 | 1014.2 |
| 20260508041139 | 76 | 0 | 0.0 | 0.0 | 0.00 | 0.00 | 0.00 | 94 | 1014.3 |
| 20260508040239 | 76 | 0 | 0.0 | 0.0 | 0.00 | 0.00 | 0.00 | 94 | 1014.2 |
| 20260508035338 | 76 | 0 | 0.0 | 0.9 | 0.00 | 0.00 | 0.00 | 94 | 1014.3 |
| 20260508033538 | 76 | 0 | 0.0 | 0.0 | 0.00 | 0.00 | 0.00 | 93 | 1014.2 |
| 20260508032638 | 76 | 0 | 0.0 | 0.9 | 0.00 | 0.00 | 0.00 | 93 | 1014.2 |
| 20260508031739 | 76 | 0 | 0.0 | 0.9 | 0.00 | 0.00 | 0.00 | 93 | 1014.2 |
| 20260508025038 | 76 | 0 | 0.0 | 0.0 | 0.00 | 0.00 | 0.00 | 93 | 1014.3 |
| 20260508024139 | 76 | 0 | 0.0 | 0.0 | 0.00 | 0.00 | 0.00 | 93 | 1014.2 |